Hourly Data Report for January 03, 2005

TORONTO CITY
ONTARIO

43°40'00.000" N
79°24'00.000" W
112.50 m
6158355
71508
XTO

Download Data

Hourly Data (January 2005)
Hourly Data Report for January 3, 2005
TIME
LST
Temp Definition
°C
Dew Point Definition
°C
Rel Hum Definition
%
Precip. Amount Definition
mm

Wind Dir Definition
10's deg

Wind Spd Definition
km/h
Visibility Definition
km
Stn Press Definition
kPa
Hmdx Definition


Wind Chill Definition


Weather Definition


00:00 4.7 3.1 89   LegendMM LegendMM   100.99     LegendNANA
01:00 4.2 2.3 87   LegendMM LegendMM   101.02     LegendNANA
02:00 3.9 1.7 86   LegendMM LegendMM   101.08     LegendNANA
03:00 3.8 1.6 86   LegendMM LegendMM   101.15     LegendNANA
04:00 3.0 1.1 87   LegendMM LegendMM   101.13     LegendNANA
05:00 3.2 1.6 89   LegendMM LegendMM   101.13     LegendNANA
06:00 3.4 1.5 87   LegendMM LegendMM   101.20     LegendNANA
07:00 3.3 1.4 87   LegendMM LegendMM   101.25     LegendNANA
08:00 3.2 1.3 87   LegendMM LegendMM   101.24     LegendNANA
09:00 3.4 1.2 85   LegendMM LegendMM   101.28     LegendNANA
10:00 3.6 1.1 84   LegendMM LegendMM   101.29     LegendNANA
11:00 3.9 0.9 81   LegendMM LegendMM   101.28     LegendNANA
12:00 4.0 1.0 81   LegendMM LegendMM   101.19     LegendNANA
13:00 4.2 1.1 80   LegendMM LegendMM   101.07     LegendNANA
14:00 4.0 1.3 83   LegendMM LegendMM   101.00     LegendNANA
15:00 3.9 1.2 83   LegendMM LegendMM   100.96     LegendNANA
16:00 4.3 1.2 80   LegendMM LegendMM   100.99     LegendNANA
17:00 3.9 0.8 80   LegendMM LegendMM   100.96     LegendNANA
18:00 3.8 0.8 81   LegendMM LegendMM   100.96     LegendNANA
19:00 3.5 0.5 81   LegendMM LegendMM   100.98     LegendNANA
20:00 3.3 0.5 82   LegendMM LegendMM   100.95     LegendNANA
21:00 3.1 0.4 82   LegendMM LegendMM   100.89     LegendNANA
22:00 3.2 0.2 81   LegendMM LegendMM   100.92     LegendNANA
23:00 2.5 0.5 87   LegendMM LegendMM   100.94     LegendNANA

Notes on Data Quality.

Legend

  • E = Estimated
  • M = Missing
  • NA = Not Available*
  • [empty] = Indicates an unobserved value
Date modified: